GFSNW_700_temp_003.txt.gz
Temp
2 2 2 3 3 4 4 4 4 4 4 4 4 4 4 4 4 4 4 4 4 4 3 3 3 2 2 2 2 2 2 2 3 2 3 3 2 1 1 -0 -0 -0 -1 -0
2 2 2 2 3 3 3 3 4 4 4 4 4 4 4 4 3 3 4 3 3 3 3 3 2 2 2 2 2 1 1 1 1 2 2 3 2 1 0 -1 -1 -1 -2 -0
2 2 2 2 2 3 3 3 3 3 3 3 3 3 3 3 3 3 3 3 3 3 3 2 2 2 1 1 1 1 1 1 0 1 1 1 1 1 -0 -1 -2 -2 -1 -1
2 2 2 2 2 2 3 3 3 3 3 3 3 3 3 3 3 3 2 3 3 3 2 2 2 1 1 1 1 1 0 0 0 -0 -1 -1 0 0 1 -0 -0 -2 -0 -1
2 2 2 2 2 2 3 3 3 3 3 3 2 2 2 2 2 2 2 2 2 2 2 1 0 1 1 1 1 0 -1 -1 -0 1 -0 -0 1 1 1 1 1 0 -1 -1
1 2 2 2 2 2 2 3 3 3 3 2 2 2 2 1 2 2 1 1 1 1 1 0 0 1 1 1 1 0 -1 -1 -2 -2 -1 -1 0 1 1 -0 -0 -1 -1 -1
1 1 1 1 1 2 2 2 2 2 2 2 2 2 2 2 1 1 1 1 1 1 0 0 1 1 1 2 2 1 1 -0 -2 -2 -1 -4 1 0 -0 -0 -0 -0 -1 -1
1 1 1 1 1 1 1 2 2 2 2 2 2 1 1 1 1 0 0 -0 -0 -0 -1 -0 1 1 1 1 1 1 0 -0 -1 -2 -3 -1 -1 -0 -1 -1 -1 -1 -2 -2
0 1 1 1 1 1 1 1 1 1 1 1 1 1 1 0 0 -0 -0 -0 -0 -1 -1 -1 -1 -1 -1 -1 -0 0 -0 -0 -1 -2 -3 -3 -1 -1 -1 -2 -3 -3 -3 -3
0 0 0 0 1 1 1 1 1 1 1 1 1 1 1 0 0 0 -0 -0 -0 -1 -1 -1 -2 -2 -1 -2 -1 -1 -1 -1 -2 -2 -3 -2 -1 -1 -2 -3 -3 -3 -4 -4
-0 -0 -0 -0 -0 0 -0 -0 0 0 -0 0 0 1 1 0 0 -0 -1 -1 -1 -1 -1 -2 -2 -3 -2 -2 -2 -2 -2 -3 -3 -3 -3 -3 -1 -2 -3 -4 -4 -4 -4 -4
-1 -1 -1 -1 -1 -1 -1 -1 -1 -1 -1 -0 -0 0 0 0 -0 -1 -1 -1 -1 -2 -2 -2 -3 -3 -4 -3 -3 -3 -3 -2 -2 -3 -2 -2 -3 -4 -4 -4 -4 -4 -5 -5
-1 -1 -1 -1 -1 -1 -1 -1 -1 -1 -1 -1 -0 -0 -0 -0 -1 -1 -1 -1 -2 -2 -2 -3 -3 -4 -4 -4 -3 -3 -3 -2 -3 -3 -2 -2 -3 -4 -4 -5 -4 -4 -5 -6
-2 -2 -2 -2 -2 -2 -2 -2 -2 -2 -2 -1 -0 -1 -0 -0 -1 -1 -1 -2 -2 -2 -3 -3 -3 -3 -3 -3 -4 -4 -3 -3 -3 -3 -3 -4 -4 -4 -4 -4 -4 -5 -6 -6
-2 -2 -2 -2 -2 -2 -2 -2 -2 -2 -3 -2 -1 -1 -1 -1 -2 -2 -2 -2 -3 -4 -3 -4 -4 -3 -3 -4 -3 -4 -3 -4 -4 -3 -4 -4 -5 -4 -4 -5 -6 -7 -6 -7
-3 -2 -3 -3 -3 -3 -3 -3 -3 -3 -3 -4 -4 -2 -1 -1 -1 -2 -2 -2 -2 -2 -3 -3 -4 -2 -3 -4 -4 -4 -4 -4 -4 -5 -5 -5 -5 -5 -6 -7 -7 -7 -7 -8
-3 -3 -3 -3 -3 -3 -3 -4 -4 -3 -3 -4 -4 -4 -2 -1 -1 -1 -2 -1 -1 -2 -3 -3 -3 -2 -4 -4 -4 -2 -4 -4 -5 -5 -6 -6 -6 -6 -7 -7 -8 -8 -9 -9
-4 -4 -4 -4 -4 -4 -4 -4 -4 -4 -3 -3 -5 -5 -5 -4 -3 -2 -2 -2 -3 -3 -3 -4 -3 -4 -5 -4 -2 -4 -4 -5 -6 -6 -6 -6 -7 -7 -8 -8 -8 -8 -9 -10
-4 -4 -4 -4 -4 -5 -4 -4 -3 -5 -4 -4 -4 -4 -4 -4 -4 -4 -4 -3 -4 -4 -4 -3 -4 -5 -5 -4 -4 -5 -5 -6 -6 -7 -7 -7 -8 -8 -9 -9 -10 -10 -10 -10
-7 -6 -6 -6 -4 -4 -4 -4 -5 -5 -5 -5 -5 -5 -4 -4 -5 -5 -5 -4 -5 -4 -5 -4 -4 -4 -4 -5 -6 -6 -6 -7 -7 -7 -8 -9 -9 -9 -8 -9 -10 -11 -11 -11
-5 -6 -6 -5 -5 -6 -5 -6 -7 -7 -6 -5 -5 -5 -5 -5 -5 -6 -6 -6 -6 -6 -5 -7 -7 -6 -6 -6 -6 -7 -7 -7 -8 -8 -8 -9 -9 -9 -10 -10 -11 -11 -11 -11
-5 -5 -5 -5 -6 -6 -7 -6 -6 -7 -7 -6 -5 -4 -4 -5 -6 -6 -6 -7 -7 -7 -8 -8 -8 -8 -7 -7 -8 -9 -9 -9 -9 -9 -10 -10 -10 -11 -11 -11 -11 -11 -11 -12
-6 -6 -7 -7 -7 -7 -7 -7 -7 -6 -6 -5 -5 -5 -6 -7 -7 -7 -7 -8 -8 -9 -9 -9 -8 -7 -8 -9 -9 -9 -10 -10 -11 -11 -11 -10 -10 -11 -11 -12 -12 -12 -12 -12
-8 -8 -8 -7 -7 -7 -7 -7 -6 -6 -6 -6 -6 -7 -7 -8 -8 -8 -8 -8 -9 -10 -10 -8 -8 -8 -9 -10 -10 -10 -10 -10 -11 -11 -11 -11 -11 -11 -11 -11 -12 -12 -13 -13
-8 -8 -8 -7 -7 -7 -7 -7 -7 -7 -7 -7 -8 -8 -8 -8 -9 -8 -9 -9 -9 -9 -8 -8 -9 -10 -10 -10 -10 -10 -10 -10 -11 -11 -11 -12 -12 -12 -12 -12 -12 -13 -13 -13
-9 -8 -8 -8 -8 -8 -8 -8 -8 -8 -9 -9 -9 -9 -9 -9 -9 -10 -9 -9 -8 -8 -9 -10 -10 -10 -10 -11 -11 -11 -11 -11 -12 -12 -12 -12 -12 -12 -12 -12 -13 -13 -13 -14
-9 -9 -9 -9 -8 -8 -8 -9 -9 -9 -9 -9 -10 -10 -9 -10 -10 -10 -9 -9 -9 -10 -11 -11 -11 -11 -11 -11 -12 -12 -12 -12 -12 -13 -12 -12 -12 -13 -13 -13 -13 -13 -13 -14

GFSNW_700_temp_006.txt.gz
Temp
2 2 2 3 3 3 3 4 4 5 5 4 5 5 5 4 4 4 4 4 4 4 4 3 3 3 2 2 2 2 2 2 2 3 2 2 1 1 1 0 -0 -1 -1 -1
2 2 2 2 2 3 3 3 4 4 4 4 4 4 4 4 4 4 4 4 4 3 3 3 2 2 2 2 2 1 1 2 2 2 2 1 1 0 -0 -1 -2 -2 -3 -0
2 2 2 2 2 2 3 3 3 4 4 4 4 4 4 4 3 3 4 4 3 3 3 3 2 2 1 1 1 1 1 1 0 1 1 1 0 0 -1 -1 -2 -2 -2 -1
2 2 2 2 2 2 3 3 3 4 3 3 3 3 3 3 3 3 3 3 3 3 2 2 2 1 1 1 1 1 0 0 0 0 0 1 1 1 0 -1 -1 -3 0 -1
1 1 2 2 2 2 2 3 3 3 3 3 3 3 3 3 3 3 3 3 2 2 1 1 1 1 1 1 1 1 -0 0 0 1 1 0 1 2 1 1 0 -0 -1 -0
1 1 2 2 2 2 2 2 3 3 3 3 3 3 3 3 3 2 2 2 1 1 1 1 1 1 1 1 1 0 -0 0 -1 0 0 -0 1 2 1 0 -0 0 -0 -0
1 1 1 1 2 2 2 2 2 2 2 2 2 2 2 2 2 2 1 1 1 1 1 1 1 1 2 1 1 1 1 -0 -2 -2 -2 -4 1 0 -0 -1 -1 -0 -1 -1
1 1 1 1 1 2 2 2 2 2 2 2 2 2 2 2 1 1 1 1 1 0 0 0 1 1 1 1 1 0 0 -0 -2 -2 -3 -2 -1 -0 -1 -1 -1 -1 -2 -2
1 0 1 1 1 1 1 2 2 1 1 2 2 2 1 1 1 1 1 1 0 0 -0 -0 -1 -0 -0 -0 0 0 -0 -1 -2 -3 -4 -4 -1 -1 -2 -2 -3 -3 -3 -3
0 0 0 0 1 1 1 1 1 1 1 1 1 1 1 1 1 1 1 0 -0 -0 -0 -1 -1 -1 -1 -1 -1 -1 -2 -2 -2 -2 -4 -3 -1 -2 -2 -3 -3 -4 -4 -4
-0 -0 -0 0 0 0 0 1 1 1 1 0 1 1 1 1 1 0 0 0 0 -0 -1 -2 -2 -2 -2 -2 -2 -2 -3 -3 -3 -3 -4 -3 -2 -3 -3 -4 -4 -4 -4 -4
-0 -0 -0 -0 -0 -0 -0 -0 0 -0 -0 0 0 0 0 0 -0 -0 -1 -0 -1 -1 -1 -2 -2 -3 -3 -3 -4 -4 -4 -2 -3 -3 -3 -2 -3 -3 -4 -4 -5 -5 -4 -4
-1 -1 -1 -1 -1 -1 -1 -0 -0 -1 -1 -0 -0 -0 -0 -0 -0 -0 -1 -1 -2 -2 -2 -2 -3 -3 -3 -4 -4 -4 -3 -3 -3 -4 -2 -2 -3 -4 -4 -4 -5 -4 -5 -6
-1 -1 -1 -1 -1 -1 -1 -1 -1 -1 -1 -1 -1 -1 -1 -1 -1 -1 -1 -2 -2 -2 -2 -3 -3 -3 -4 -4 -4 -4 -3 -4 -2 -4 -2 -3 -4 -4 -4 -5 -5 -5 -6 -7
-2 -2 -2 -2 -2 -2 -2 -2 -2 -2 -2 -1 -1 -1 -1 -1 -1 -1 -2 -2 -3 -2 -3 -3 -3 -4 -4 -3 -3 -4 -2 -3 -4 -4 -4 -4 -5 -5 -5 -6 -6 -7 -7 -8
-2 -2 -2 -2 -2 -2 -2 -2 -2 -2 -2 -2 -2 -1 -0 -2 -1 -2 -2 -2 -3 -2 -3 -4 -5 -4 -4 -4 -4 -3 -4 -4 -4 -5 -4 -5 -6 -6 -7 -7 -7 -8 -8 -8
-2 -3 -3 -3 -3 -3 -3 -3 -3 -2 -3 -3 -3 -3 -1 -1 -1 -1 -1 -2 -3 -3 -3 -4 -4 -3 -4 -4 -4 -2 -4 -5 -5 -5 -6 -6 -6 -7 -7 -8 -8 -8 -9 -9
-3 -3 -3 -3 -3 -3 -3 -3 -4 -3 -3 -4 -4 -4 -4 -3 -3 -3 -3 -2 -2 -3 -3 -4 -4 -4 -4 -4 -4 -5 -5 -5 -5 -6 -7 -7 -7 -8 -9 -9 -9 -9 -9 -10
-3 -3 -3 -4 -4 -4 -4 -4 -4 -4 -4 -5 -5 -5 -5 -4 -4 -4 -3 -4 -4 -4 -4 -5 -4 -5 -5 -5 -5 -5 -5 -6 -6 -7 -7 -7 -7 -8 -9 -9 -10 -10 -10 -10
-3 -3 -4 -4 -3 -4 -4 -4 -5 -4 -5 -5 -5 -4 -5 -5 -5 -4 -5 -5 -5 -4 -5 -5 -5 -5 -6 -6 -5 -6 -6 -7 -7 -7 -7 -8 -8 -9 -10 -10 -10 -10 -10 -10
-4 -4 -4 -4 -4 -4 -4 -4 -5 -5 -5 -5 -5 -5 -4 -5 -5 -5 -5 -6 -6 -6 -5 -6 -6 -6 -6 -6 -6 -6 -7 -7 -7 -8 -8 -9 -10 -10 -10 -10 -10 -10 -11 -11
-7 -7 -7 -6 -5 -6 -6 -6 -6 -6 -6 -6 -5 -4 -4 -5 -6 -6 -6 -6 -6 -7 -7 -8 -7 -6 -6 -7 -8 -8 -8 -9 -9 -9 -10 -10 -10 -10 -11 -11 -11 -11 -12 -12
-8 -8 -8 -8 -7 -8 -7 -7 -7 -6 -5 -5 -4 -5 -5 -6 -7 -7 -7 -7 -7 -8 -8 -8 -7 -7 -8 -9 -9 -9 -10 -10 -10 -10 -11 -10 -10 -10 -11 -11 -12 -12 -12 -12
-7 -7 -8 -7 -7 -6 -6 -6 -6 -6 -5 -6 -6 -6 -6 -7 -7 -7 -8 -8 -9 -9 -9 -7 -7 -8 -9 -9 -9 -9 -9 -9 -9 -10 -10 -11 -11 -11 -12 -12 -12 -12 -12 -13
-8 -8 -8 -7 -7 -7 -7 -6 -7 -7 -7 -7 -7 -8 -8 -8 -8 -8 -9 -9 -9 -9 -7 -8 -9 -9 -9 -9 -10 -10 -10 -10 -11 -11 -12 -12 -12 -12 -12 -12 -12 -13 -13 -13
-8 -8 -7 -7 -7 -7 -7 -7 -7 -8 -8 -8 -9 -9 -9 -9 -9 -9 -9 -9 -8 -8 -9 -10 -10 -10 -10 -10 -11 -11 -11 -12 -12 -12 -12 -12 -12 -13 -13 -13 -13 -13 -13 -13
-9 -8 -8 -8 -8 -8 -8 -8 -8 -9 -9 -10 -9 -9 -9 -10 -10 -10 -9 -9 -9 -10 -10 -10 -11 -11 -11 -11 -11 -12 -12 -12 -12 -12 -12 -12 -13 -13 -13 -13 -13 -13 -13 -13

GFSNW_700_temp_009.txt.gz
Temp
2 2 3 3 3 3 3 4 4 4 5 4 4 5 5 4 4 4 4 4 4 4 4 3 3 3 2 2 2 2 3 3 3 2 2 1 1 1 1 0 -0 -0 -2 -1
2 2 2 3 3 2 3 3 4 4 4 4 4 4 4 4 4 4 4 4 4 4 4 3 3 2 2 2 1 2 2 2 2 2 1 1 1 0 0 -1 -2 -2 -2 -0
2 2 2 2 2 2 2 3 3 4 4 4 4 4 4 4 4 4 4 4 3 3 3 3 2 2 1 1 1 1 1 2 2 2 2 1 1 1 -1 -2 -2 -2 -1 -1
1 2 2 2 2 2 2 2 3 4 3 3 4 4 4 4 4 3 3 3 3 3 3 2 2 2 2 2 1 1 1 1 1 1 1 1 2 1 0 -1 -1 -3 0 -1
2 2 2 2 2 2 2 2 3 3 3 3 3 3 3 3 3 3 3 3 3 2 2 2 2 2 2 2 2 1 1 1 1 1 1 1 1 2 1 0 0 -1 -1 -1
1 1 1 1 2 2 2 2 3 3 3 3 3 3 3 3 3 3 3 2 2 2 2 2 2 2 2 2 2 1 1 0 -0 -0 0 -0 1 1 1 1 -0 -1 -1 -1
1 1 1 1 2 2 2 2 2 2 3 2 3 3 3 2 2 2 2 2 2 2 1 1 2 2 2 2 2 1 1 -1 -2 -2 -1 -2 1 0 -1 -1 -0 -1 -1 -2
1 1 1 1 1 1 2 2 2 2 2 2 2 2 2 2 2 2 1 1 1 1 1 1 1 1 1 1 1 1 0 -0 -1 -3 -4 -2 -1 -0 -1 -1 -2 -2 -2 -2
1 1 1 1 1 1 1 2 2 2 2 2 2 2 2 2 1 1 1 1 1 1 0 0 0 0 0 0 0 0 -0 -1 -2 -4 -4 -3 -1 -1 -2 -2 -2 -2 -4 -4
0 1 1 1 1 1 1 1 1 1 2 2 1 1 1 1 1 1 0 0 0 -0 -0 -1 -1 -0 -1 -1 -1 -1 -2 -2 -3 -4 -4 -3 -2 -2 -3 -3 -4 -4 -5 -5
0 0 0 1 1 1 1 1 1 1 1 1 1 1 1 0 0 0 0 -0 0 -0 -1 -1 -1 -1 -1 -2 -2 -2 -3 -3 -4 -4 -4 -3 -2 -3 -4 -4 -4 -4 -5 -5
-0 0 0 0 0 0 1 1 0 0 0 0 0 1 1 0 0 -0 -0 -0 -0 -1 -1 -1 -2 -2 -2 -3 -3 -3 -3 -3 -3 -4 -3 -2 -3 -4 -4 -4 -4 -4 -6 -5
-1 -0 -0 -0 0 0 -0 0 0 -0 -0 -0 -0 0 0 -0 -0 -0 -0 -0 -1 -1 -1 -2 -2 -3 -3 -3 -3 -3 -3 -3 -4 -4 -3 -3 -4 -4 -5 -4 -5 -5 -5 -6
-1 -0 -0 -1 -1 -1 -1 -0 -0 -1 -1 -1 -0 -0 -1 -1 -1 -1 -1 -1 -1 -1 -2 -2 -3 -3 -3 -3 -3 -4 -3 -4 -4 -4 -3 -4 -4 -4 -5 -5 -5 -5 -6 -6
-1 -1 -1 -1 -1 -1 -1 -1 -1 -1 -1 -1 -1 -1 -1 -1 -1 -1 -1 -1 -1 -1 -2 -2 -3 -3 -3 -4 -4 -4 -2 -3 -4 -4 -5 -5 -4 -5 -5 -6 -6 -6 -7 -8
-2 -2 -2 -2 -1 -1 -1 -2 -2 -2 -2 -2 -2 -1 -1 -1 -1 -1 -1 -1 -1 -1 -2 -3 -4 -3 -5 -4 -4 -4 -3 -4 -5 -5 -5 -4 -5 -5 -6 -6 -6 -7 -9 -9
-2 -3 -2 -2 -2 -2 -2 -2 -2 -2 -2 -3 -3 -2 -1 -1 -0 -1 -1 -1 -1 -1 -2 -4 -5 -4 -4 -4 -4 -3 -3 -4 -5 -5 -5 -6 -6 -6 -7 -7 -8 -9 -9 -10
-3 -3 -3 -3 -3 -3 -3 -3 -3 -3 -3 -3 -3 -3 -3 -2 -2 -2 -2 -2 -2 -2 -3 -3 -4 -5 -4 -5 -4 -4 -4 -5 -6 -5 -6 -6 -7 -7 -7 -8 -9 -9 -10 -10
-3 -4 -5 -4 -4 -3 -3 -3 -3 -3 -4 -4 -4 -3 -4 -4 -3 -3 -2 -3 -3 -3 -4 -5 -5 -5 -5 -4 -4 -5 -5 -6 -5 -6 -7 -7 -8 -8 -9 -9 -10 -10 -10 -10
-4 -4 -5 -4 -4 -4 -5 -3 -4 -4 -4 -4 -4 -5 -4 -5 -4 -4 -5 -4 -5 -5 -5 -5 -5 -5 -6 -6 -6 -6 -6 -6 -7 -8 -8 -8 -8 -9 -9 -9 -10 -10 -10 -10
-4 -4 -4 -4 -4 -4 -4 -4 -4 -4 -4 -4 -4 -5 -4 -5 -5 -5 -5 -5 -6 -6 -5 -6 -6 -6 -5 -5 -6 -7 -7 -7 -8 -8 -9 -9 -9 -9 -10 -10 -10 -10 -11 -11
-4 -4 -4 -4 -5 -4 -4 -5 -5 -5 -5 -5 -5 -4 -5 -6 -6 -6 -6 -6 -6 -6 -7 -7 -7 -6 -6 -6 -7 -7 -7 -8 -8 -9 -9 -10 -10 -10 -10 -11 -11 -11 -12 -12
-6 -6 -6 -6 -7 -7 -6 -7 -7 -7 -6 -5 -5 -6 -7 -6 -7 -7 -7 -7 -7 -8 -8 -8 -6 -6 -7 -7 -8 -8 -9 -9 -9 -10 -10 -10 -11 -11 -11 -11 -12 -12 -12 -12
-8 -8 -8 -8 -8 -8 -7 -6 -6 -6 -6 -6 -6 -6 -6 -7 -8 -8 -7 -8 -8 -8 -8 -7 -6 -7 -8 -8 -8 -9 -9 -10 -10 -11 -11 -11 -11 -11 -11 -12 -12 -13 -13 -13
-9 -9 -9 -8 -8 -8 -7 -7 -7 -6 -6 -6 -7 -7 -8 -8 -8 -8 -8 -9 -9 -8 -6 -6 -7 -8 -8 -9 -9 -10 -10 -11 -11 -11 -11 -11 -12 -12 -12 -12 -13 -13 -13 -13
-8 -8 -8 -8 -8 -7 -7 -7 -7 -7 -7 -7 -8 -8 -8 -8 -8 -9 -9 -10 -8 -7 -7 -8 -9 -9 -9 -10 -10 -11 -11 -11 -11 -11 -12 -12 -12 -12 -12 -12 -13 -13 -13 -13
-9 -8 -8 -8 -7 -7 -7 -7 -7 -7 -8 -8 -9 -9 -8 -9 -9 -10 -9 -8 -8 -9 -9 -10 -10 -10 -10 -11 -11 -11 -11 -12 -12 -12 -12 -12 -13 -13 -13 -13 -13 -13 -14 -14

GFSNW_700_temp_015.txt.gz
Temp
2 2 2 2 3 3 3 3 3 4 4 3 3 4 4 5 5 5 5 4 5 5 4 4 4 4 3 4 4 3 4 3 4 5 4 4 3 4 4 3 4 3 2 3
2 2 2 2 3 3 3 2 3 4 4 3 4 4 5 4 4 4 4 5 4 4 4 4 3 3 4 4 4 2 4 3 5 5 3 2 3 3 2 1 0 1 2 3
1 2 2 2 3 3 3 2 2 4 4 3 4 4 4 5 5 5 5 5 5 4 4 4 4 4 4 4 4 4 4 2 3 4 4 3 3 3 3 2 1 2 2 3
1 2 2 2 2 3 3 3 2 3 4 4 3 3 4 4 4 4 4 4 3 3 3 3 3 2 4 4 4 4 3 2 2 2 2 2 2 2 2 2 2 2 2 2
1 1 1 2 2 2 3 2 4 4 4 3 3 4 3 4 4 4 3 3 3 3 4 3 3 2 2 2 3 1 3 1 2 3 2 2 1 1 2 2 2 1 2 1
1 1 1 1 2 2 2 3 3 4 4 4 3 3 3 3 4 4 3 3 3 3 2 4 4 4 3 3 1 1 2 2 1 1 1 1 2 1 2 2 1 1 0 0
1 1 1 1 1 2 2 2 3 3 4 3 3 3 3 2 2 3 3 2 2 3 3 3 3 3 3 3 2 2 1 1 0 0 -0 0 2 1 1 1 0 0 0 -0
1 1 1 1 2 2 2 2 2 3 3 3 3 3 2 3 3 3 3 3 3 3 3 3 3 3 2 2 2 1 1 0 -0 -2 -1 -0 0 -1 -1 -1 -0 -1 -2 -2
1 1 1 1 2 2 2 2 2 2 3 3 3 2 3 3 3 2 2 2 2 2 2 2 2 1 1 1 1 1 1 -0 -1 -3 -3 -1 -0 -1 -2 -2 -1 -2 -3 -2
0 1 1 1 1 1 2 2 2 2 2 3 2 2 2 1 2 1 2 2 2 2 2 1 1 1 1 1 1 1 0 -1 -2 -3 -3 -2 -1 -2 -2 -2 -2 -3 -2 -3
0 1 1 1 1 1 1 2 2 2 2 2 2 2 2 2 1 2 2 1 1 1 1 1 1 1 1 1 0 0 -1 -1 -2 -3 -3 -3 -2 -3 -3 -3 -3 -4 -4 -5
0 0 1 1 1 1 1 1 1 1 1 2 2 2 2 2 1 1 1 1 2 1 1 1 1 1 0 0 -1 -1 -1 -1 -1 -2 -2 -1 -2 -3 -3 -3 -4 -4 -5 -5
-0 0 0 0 0 1 1 1 1 1 1 1 1 1 1 1 1 1 1 1 1 1 1 1 -0 -0 0 -0 -0 -0 -0 -1 -2 -3 -2 -3 -3 -3 -3 -3 -4 -4 -5 -5
-0 -0 0 0 0 0 0 1 0 0 0 0 1 1 1 1 1 1 1 1 0 0 -0 -0 -1 -1 -1 -1 -0 -1 -1 -2 -2 -3 -3 -3 -4 -4 -4 -4 -5 -5 -5 -6
-1 -1 -0 -0 0 -0 0 0 0 0 -0 -0 0 0 0 0 0 0 -0 -0 -0 -0 -1 -1 -1 -1 -2 -2 -2 -1 -0 -2 -3 -3 -3 -3 -4 -3 -4 -6 -5 -6 -7 -7
-1 -1 -1 -1 -0 -0 -1 -1 -0 -0 -0 -1 -1 -0 0 -0 -0 -1 -0 -0 -1 -1 -1 -1 -2 -3 -2 -3 -2 -1 -2 -2 -3 -4 -3 -4 -4 -4 -5 -6 -6 -7 -8 -8
-2 -2 -2 -1 -1 -1 -1 -1 -0 -1 -1 -1 -1 -1 -1 -1 -1 -1 -1 -1 -1 -1 -1 -2 -2 -2 -3 -4 -3 -1 -4 -2 -2 -3 -3 -5 -5 -5 -6 -7 -7 -8 -9 -9
-2 -2 -2 -2 -2 -2 -2 -2 -2 -1 -1 -2 -2 -2 -1 -1 -1 -1 -1 -1 -2 -2 -3 -2 -2 -3 -4 -4 -2 -2 -2 -3 -4 -4 -5 -5 -6 -6 -7 -8 -8 -9 -9 -10
-3 -3 -3 -2 -2 -2 -2 -2 -2 -2 -3 -3 -3 -2 -2 -1 -1 -1 -1 -1 -2 -2 -2 -2 -3 -4 -4 -3 -3 -3 -4 -5 -5 -5 -5 -6 -6 -7 -8 -8 -9 -9 -9 -9
-3 -3 -4 -4 -3 -3 -3 -4 -4 -4 -3 -3 -3 -3 -3 -3 -2 -2 -3 -3 -3 -3 -3 -3 -5 -5 -3 -2 -3 -3 -4 -5 -6 -6 -7 -7 -7 -8 -8 -9 -9 -9 -9 -10
-3 -3 -3 -4 -4 -4 -4 -4 -4 -4 -4 -3 -3 -3 -5 -4 -4 -3 -3 -4 -4 -4 -4 -5 -5 -5 -3 -3 -3 -4 -5 -6 -6 -7 -7 -8 -8 -8 -9 -9 -9 -10 -10 -10
-3 -4 -4 -4 -3 -3 -3 -4 -4 -3 -4 -3 -3 -3 -3 -5 -5 -4 -4 -4 -5 -5 -6 -6 -6 -4 -3 -4 -4 -5 -5 -6 -7 -7 -8 -8 -8 -9 -9 -10 -10 -10 -11 -11
-4 -4 -4 -4 -4 -4 -4 -4 -4 -4 -4 -4 -4 -4 -4 -4 -4 -5 -5 -5 -6 -7 -7 -7 -6 -5 -4 -5 -5 -6 -6 -7 -7 -8 -8 -9 -9 -10 -10 -10 -11 -11 -11 -12
-6 -6 -5 -5 -6 -6 -6 -5 -4 -4 -5 -5 -4 -5 -5 -5 -5 -6 -6 -7 -7 -7 -8 -6 -5 -5 -6 -6 -6 -7 -7 -8 -8 -9 -10 -10 -10 -10 -10 -11 -11 -11 -12 -12
-7 -6 -7 -8 -7 -7 -7 -7 -6 -6 -6 -6 -6 -6 -7 -7 -7 -7 -8 -7 -8 -8 -8 -6 -6 -6 -6 -7 -7 -8 -9 -9 -10 -10 -10 -10 -10 -11 -11 -11 -12 -12 -12 -12
-8 -8 -8 -8 -8 -8 -8 -8 -8 -8 -8 -8 -8 -8 -8 -8 -8 -8 -8 -8 -8 -7 -7 -7 -7 -7 -8 -8 -9 -10 -10 -10 -10 -10 -11 -11 -11 -11 -11 -12 -12 -12 -13 -13
-9 -9 -9 -9 -9 -8 -9 -9 -9 -9 -8 -8 -8 -9 -9 -8 -8 -8 -8 -8 -8 -8 -8 -8 -8 -9 -9 -10 -10 -10 -11 -11 -11 -11 -11 -11 -11 -12 -12 -12 -13 -13 -13 -13